LATINSAT B

Satellite information

Favourite Embed

Satellite Type and Status

PAYLOADIN ORBIT

Key statistics

Satellite LATINSAT B at a glance.

Uptime

8298

Days in orbit

Revolutions

≈ 14.8

Per day

Orbit

LEO

Low Earth Orbit

Inclination

64.6

Latest

Satellite identification and parameters

Extended collection of information and parameters for LATINSAT B.

Object identification

Identified? True

Debris? False

Object name: LATINSAT B

International designator: 2002-058B

Object number (NORAD): 27606

Object ID (CCSDS): 27606

Country: ARGENTINA (ARGN)

Current information (Y/N): Y

RCS size: SMALL

Orbital parameters

Period: 97.54 minutes

Inclination: 64.5556 deg

SMA: 7019.129 km

Apoapsis: 691.602 km

Periapsis: 590.386 km

RAAN: 35.3689 deg

Eccentricy: 0.00721001

Argument of periapsis: 327.1233 deg

Mean anomaly: 32.5394 deg

Mean motion: 14.76311306 rev/day

Mean motion (dot): 0.000009 rev/day2

B* drag term: 0.00014442481 1/REarth

Two-line elements (TLE)

Creation date: Sept. 8, 2025, 3:16 a.m.

Reference frame: TEME

Reference center: EARTH

Epoch: Sept. 7, 2025, 9:30 p.m. UTC

TLE line 0: 0 LATINSAT B

TLE line 1: 1 27606U 02058B 25250.89609349 .00000900 00000-0 14442-3 0 9995

TLE line 2: 2 27606 64.5556 35.3689 0072100 327.1233 32.5394 14.76311306220416

Live tracking on map

Real-time ground track for satellite LATINSAT B.

In-orbit conjunctions

There are no conjunctions computed for LATINSAT B, at the moment. Check back to stay up to date, as we update our databases every day.

Go to all conjunctions

Associated space launch

Technology satellite for OHB-System, Germany.

LATINSAT B was lifted into orbit during the mission ‘Dnepr | AATiS-OSCAR-49’, on board a Dnepr space rocket.

The launch took place on Dec. 20, 2002, 5 p.m. from 109/95.

For more information about the launch, click the button.

Launch to space Dnepr | AATiS-OSCAR-49
Dnepr | AATiS-OSCAR-49

Agency: N/A

Status: Launch Successful

Launch date: Dec. 20, 2002, 5 p.m. UTC

Rocket: Dnepr

Launch pad: 109/95

Location: Baikonur Cosmodrome, Republic of Kazakhstan

...

Latest news about this satellite

There are no fresh news available about this satellite. Check back as we update our databases every day.


Newsletter sign-up

Weekly statistics, charts and insights to help you stay on top of the space industry.